Hamilton, OH

5:01 AM EST on November 20, 2017 (GMT -0500)
Butler County Regional

Weather History for KHAO - January, 2013

Change the Weather History Date:

Monday, January 21, 2013

  Actual Average (KLUK) Record (KLUK)
Temperature  
Mean Temperature 19 °F -  
Max Temperature 26 °F 38 °F 68 °F (1959)
Min Temperature 12 °F 23 °F -12 °F (1985)
Degree Days  
Heating Degree Days 46    
Moisture  
Dew Point 10 °F    
Average Humidity 59    
Maximum Humidity 80    
Minimum Humidity 40    
Precipitation  
Precipitation 0.00 in - - ()
Sea Level Pressure  
Sea Level Pressure 30.17 in    
Wind  
Wind Speed 10 mph (WNW)    
Max Wind Speed 22 mph    
Max Gust Speed 31 mph    
Visibility 8 miles    
Events Snow    
Averages and records for this station are not official NWS values.
T = Trace of Precipitation, MM = Missing Value Source: NWS Daily Summary

Daily Weather History Graph

Daily Weather History Graph

Search for Another Location

Airport or City:

Trip Planner

Search our weather history database for the weather conditions in past years. The results will help you decide how hot, cold, wet, or windy it might be!

Date:

Astronomy

Jan. 21, 2013 Rise Set
Actual Time 7:53 AM EST 5:46 PM EST
Civil Twilight 7:24 AM EST 6:15 PM EST
Nautical Twilight 6:51 AM EST 6:47 PM EST
Astronomical Twilight 6:19 AM EST 7:19 PM EST
Moon 1:25 PM EST (1/21) 3:20 AM EST (1/21)
Length of Visible Light 10h 50m
Length of Day
9h 52m
Waxing Gibbous, 75% of the Moon is Illuminated
Jan 21
Waxing Gibbous
Jan 26
Full
Feb 3
Last Quarter
Feb 10
New
Feb 17
First Quarter

Hourly Weather History & Observations

Time (EST) Temp. Windchill Dew Point Humidity Pressure Visibility Wind Dir Wind Speed Gust Speed Precip Events Conditions
12:53 AM 26.1 °F 18.4 °F 14.0 °F 60% 30.21 in 10.0 mi NW 6.9 mph - N/A   Overcast
1:53 AM 26.1 °F 16.8 °F 12.9 °F 58% 30.18 in 10.0 mi NW 9.2 mph - N/A   Overcast
2:53 AM 25.0 °F 18.1 °F 12.0 °F 58% 30.18 in 10.0 mi WNW 5.8 mph - N/A   Overcast
3:53 AM 25.0 °F 19.3 °F 12.0 °F 58% 30.17 in 10.0 mi WNW 4.6 mph - N/A   Overcast
4:53 AM 25.0 °F 20.7 °F 12.9 °F 60% 30.15 in 10.0 mi West 3.5 mph - N/A   Overcast
5:53 AM 25.0 °F 17.1 °F 12.9 °F 60% 30.15 in 10.0 mi West 6.9 mph - N/A   Overcast
6:53 AM 25.0 °F 16.3 °F 14.0 °F 63% 30.15 in 10.0 mi West 8.1 mph - N/A   Overcast
7:22 AM 24.8 °F 16.1 °F 14.0 °F 64% 30.13 in 10.0 mi West 8.1 mph - N/A   Overcast
7:53 AM 24.1 °F 13.7 °F 14.0 °F 65% 30.15 in 10.0 mi WNW 10.4 mph - N/A   Overcast
8:05 AM 24.8 °F 15.3 °F 14.0 °F 64% 30.12 in 10.0 mi West 9.2 mph - N/A   Overcast
8:53 AM 24.1 °F 12.5 °F 12.9 °F 62% 30.16 in 10.0 mi West 12.7 mph 17.3 mph N/A   Mostly Cloudy
9:48 AM 24.8 °F 16.9 °F 15.8 °F 69% 30.12 in 7.0 mi WNW 6.9 mph - 0.00 in Snow Light Snow
9:53 AM 24.1 °F 14.4 °F 15.1 °F 69% 30.15 in 7.0 mi West 9.2 mph - 0.00 in Snow Light Snow
10:27 AM 24.8 °F 14.6 °F 12.2 °F 59% 30.13 in 10.0 mi West 10.4 mph 18.4 mph 0.00 in   Mostly Cloudy
10:51 AM 24.8 °F 14.0 °F 14.0 °F 64% 30.13 in 2.5 mi West 11.5 mph 20.7 mph 0.00 in Snow Light Snow
10:53 AM 24.1 °F 12.5 °F 15.1 °F 69% 30.16 in 2.5 mi West 12.7 mph 20.7 mph 0.00 in Snow Light Snow
11:01 AM 26.6 °F 15.2 °F 15.8 °F 64% 30.13 in 4.0 mi West 13.8 mph - 0.00 in Snow Light Snow
11:45 AM 23.0 °F 10.1 °F 15.8 °F 74% 30.13 in 1.8 mi WNW 15.0 mph 24.2 mph 0.00 in Snow Light Snow
11:53 AM 23.0 °F 9.2 °F 15.1 °F 72% 30.15 in 1.0 mi WNW 17.3 mph 24.2 mph 0.00 in Snow Light Snow
11:57 AM 23.0 °F 8.3 °F 15.8 °F 74% 30.13 in 2.0 mi WNW 19.6 mph 25.3 mph 0.00 in Snow Light Snow
12:05 PM 21.2 °F 6.0 °F 14.0 °F 74% 30.13 in 4.0 mi WNW 19.6 mph 25.3 mph 0.00 in Snow Light Snow
12:11 PM 21.2 °F 8.3 °F 15.8 °F 80% 30.13 in 1.8 mi WNW 13.8 mph 25.3 mph 0.00 in Snow Light Snow
12:22 PM 23.0 °F 9.6 °F 14.0 °F 68% 30.12 in 3.0 mi West 16.1 mph 21.9 mph 0.00 in Snow Light Snow
12:48 PM 24.8 °F 13.4 °F 8.6 °F 50% 30.12 in 9.0 mi West 12.7 mph 29.9 mph 0.00 in   Overcast
12:53 PM 26.1 °F 13.1 °F 8.1 °F 47% 30.15 in 10.0 mi West 17.3 mph 31.1 mph 0.00 in   Overcast
1:53 PM 21.9 °F 7.3 °F 5.0 °F 48% 30.15 in 10.0 mi WNW 18.4 mph 28.8 mph N/A   Mostly Cloudy
2:53 PM 24.1 °F 9.0 °F 3.9 °F 42% 30.16 in 10.0 mi WNW 21.9 mph 28.8 mph N/A   Mostly Cloudy
3:53 PM 21.9 °F 7.3 °F 1.0 °F 40% 30.18 in 10.0 mi West 18.4 mph 27.6 mph N/A   Scattered Clouds
4:53 PM 19.9 °F 7.3 °F -0.0 °F 42% 30.20 in 10.0 mi West 12.7 mph 24.2 mph N/A   Clear
5:53 PM 19.0 °F 5.6 °F -0.0 °F 43% 30.22 in 10.0 mi West 13.8 mph 23.0 mph N/A   Clear
6:53 PM 17.1 °F 1.0 °F -0.0 °F 47% 30.23 in 10.0 mi WNW 18.4 mph 28.8 mph N/A   Clear
7:53 PM 16.0 °F 1.7 °F 1.9 °F 54% 30.25 in 10.0 mi WNW 13.8 mph 17.3 mph N/A   Clear
8:53 PM 15.1 °F -0.1 °F -0.0 °F 51% 30.27 in 10.0 mi WNW 15.0 mph 23.0 mph N/A   Clear
9:53 PM 14.0 °F 2.0 °F -0.0 °F 54% 30.29 in 10.0 mi West 9.2 mph 19.6 mph N/A   Mostly Cloudy
10:53 PM 12.9 °F -2.2 °F -2.0 °F 51% 30.30 in 10.0 mi NW 13.8 mph - N/A   Clear
11:53 PM 12.0 °F 2.7 °F -2.0 °F 53% 30.31 in 10.0 mi West 5.8 mph - N/A   Clear